Madison, SD

12:16 PM CDT on April 26, 2017 (GMT -0500)
Madison Municipal

Weather History for KMDS - September, 2013

Change the Weather History Date:

Monday, September 2, 2013

  Actual Average Record
Temperature  
Mean Temperature 58 °F -  
Max Temperature 73 °F 78 °F 89 °F (2012)
Min Temperature 42 °F 54 °F 42 °F (2013)
Degree Days  
Heating Degree Days 8    
Growing Degree Days 8 (Base 50)    
Moisture  
Dew Point 51 °F    
Average Humidity 78    
Maximum Humidity 100    
Minimum Humidity 41    
Precipitation  
Precipitation 0.00 in - - ()
Sea Level Pressure  
Sea Level Pressure 30.09 in    
Wind  
Wind Speed 4 mph (NE)    
Max Wind Speed 8 mph    
Max Gust Speed -    
Visibility 8 miles    
Events Fog    
Averages and records for this station are not official NWS values.
T = Trace of Precipitation, MM = Missing Value Source: NWS Daily Summary

Daily Weather History Graph

Daily Weather History Graph

Search for Another Location

Airport or City:

Trip Planner

Search our weather history database for the weather conditions in past years. The results will help you decide how hot, cold, wet, or windy it might be!

Date:

Astronomy

Sep. 02, 2013 Rise Set
Actual Time 6:53 AM CDT 8:01 PM CDT
Civil Twilight 6:23 AM CDT 8:31 PM CDT
Nautical Twilight 5:47 AM CDT 9:06 PM CDT
Astronomical Twilight 5:10 AM CDT 9:44 PM CDT
Moon 4:07 AM CDT (9/2) 6:18 PM CDT (9/2)
Length of Visible Light 14h 08m
Length of Day
13h 08m
Waning Crescent, 8% of the Moon is Illuminated
Sep 2
Waning Crescent
Sep 5
New
Sep 12
First Quarter
Sep 19
Full
Sep 26
Last Quarter

Hourly Weather History & Observations

Time (CDT) Temp. Windchill Dew Point Humidity Pressure Visibility Wind Dir Wind Speed Gust Speed Precip Events Conditions
12:10 AM 53.6 °F - 53.6 °F 100% 30.08 in 10.0 mi ENE 5.8 mph - N/A   Clear
12:30 AM 53.6 °F - 53.6 °F 100% 30.08 in 10.0 mi ENE 3.5 mph - N/A   Clear
12:50 AM 51.8 °F - 51.8 °F 100% 30.08 in 10.0 mi NE 5.8 mph - N/A   Clear
1:10 AM 50.0 °F - 50.0 °F 100% 30.08 in 10.0 mi NE 5.8 mph - N/A   Clear
1:30 AM 50.0 °F - 50.0 °F 100% 30.08 in 3.0 mi NE 3.5 mph - N/A   Clear
1:50 AM 48.2 °F - 48.2 °F 100% 30.08 in 10.0 mi NE 4.6 mph - N/A   Clear
2:10 AM 50.0 °F - 50.0 °F 100% 30.08 in 10.0 mi NE 3.5 mph - N/A   Clear
2:30 AM 46.4 °F 45.2 °F 46.4 °F 100% 30.08 in 0.2 mi NE 3.5 mph - N/A Fog Fog
2:50 AM 46.4 °F 45.2 °F 46.4 °F 100% 30.08 in 0.5 mi NE 3.5 mph - N/A Fog Fog
3:10 AM 44.6 °F 43.1 °F 44.6 °F 100% 30.09 in 0.2 mi North 3.5 mph - N/A Fog Fog
3:30 AM 44.6 °F 43.1 °F 44.6 °F 100% 30.09 in 0.2 mi NW 3.5 mph - N/A Fog Fog
3:50 AM 44.6 °F 41.4 °F 44.6 °F 100% 30.09 in 1.0 mi NW 5.8 mph - N/A   Mostly Cloudy
4:10 AM 44.6 °F 42.2 °F 44.6 °F 100% 30.09 in 0.5 mi NW 4.6 mph - N/A Fog Fog
4:30 AM 44.6 °F 43.1 °F 44.6 °F 100% 30.10 in 0.5 mi NNW 3.5 mph - N/A Fog Fog
4:50 AM 44.6 °F 42.2 °F 44.6 °F 100% 30.10 in 0.5 mi NNW 4.6 mph - N/A Fog Fog
5:10 AM 42.8 °F 39.3 °F 42.8 °F 100% 30.10 in 0.2 mi North 5.8 mph - N/A Fog Fog
5:30 AM 42.8 °F 41.1 °F 42.8 °F 100% 30.10 in 0.5 mi NNW 3.5 mph - N/A Fog Fog
5:50 AM 44.6 °F 43.1 °F 44.6 °F 100% 30.11 in 10.0 mi WNW 3.5 mph - N/A   Clear
6:10 AM 44.6 °F 43.1 °F 44.6 °F 100% 30.11 in 10.0 mi WNW 3.5 mph - N/A   Clear
6:30 AM 42.8 °F 40.1 °F 42.8 °F 100% 30.12 in 0.2 mi WNW 4.6 mph - N/A Fog Fog
6:50 AM 44.6 °F 42.2 °F 44.6 °F 100% 30.12 in 0.2 mi NW 4.6 mph - N/A Fog Fog
7:10 AM 44.6 °F 42.2 °F 44.6 °F 100% 30.13 in 3.0 mi NNW 4.6 mph - N/A   Clear
7:30 AM 46.4 °F - 46.4 °F 100% 30.13 in 10.0 mi Calm Calm - N/A   Clear
7:50 AM 50.0 °F - 50.0 °F 100% 30.13 in 10.0 mi Calm Calm - N/A   Clear
8:10 AM 53.6 °F - 53.6 °F 100% 30.14 in 10.0 mi Calm Calm - N/A   Clear
8:30 AM 55.4 °F - 55.4 °F 100% 30.14 in 10.0 mi Calm Calm - N/A   Clear
8:50 AM 57.2 °F - 57.2 °F 100% 30.14 in 10.0 mi NE 3.5 mph - N/A   Clear
9:10 AM 59.0 °F - 57.2 °F 94% 30.14 in 10.0 mi NNE 4.6 mph - N/A   Clear
9:30 AM 60.8 °F - 55.4 °F 82% 30.15 in 10.0 mi ENE 3.5 mph - N/A   Clear
9:50 AM 62.6 °F - 53.6 °F 72% 30.14 in 10.0 mi North 4.6 mph - N/A   Clear
10:10 AM 64.4 °F - 53.6 °F 68% 30.14 in 10.0 mi North 5.8 mph - N/A   Clear
10:30 AM 64.4 °F - 53.6 °F 68% 30.14 in 10.0 mi NE 6.9 mph - N/A   Clear
10:50 AM 66.2 °F - 53.6 °F 64% 30.14 in 10.0 mi North 6.9 mph - N/A   Clear
11:10 AM 66.2 °F - 55.4 °F 68% 30.13 in 10.0 mi NNE 8.1 mph - N/A   Clear
11:30 AM 68.0 °F - 53.6 °F 60% 30.13 in 10.0 mi NE 4.6 mph - N/A   Clear
11:50 AM 68.0 °F - 50.0 °F 52% 30.13 in 10.0 mi NNW 6.9 mph - N/A   Clear
12:10 PM 69.8 °F - 50.0 °F 49% 30.12 in 10.0 mi NNW 5.8 mph - N/A   Clear
12:30 PM 69.8 °F - 50.0 °F 49% 30.12 in 10.0 mi WNW 4.6 mph - N/A   Clear
12:50 PM 71.6 °F - 50.0 °F 46% 30.11 in 10.0 mi North 3.5 mph - N/A   Clear
1:10 PM 71.6 °F - 50.0 °F 46% 30.11 in 10.0 mi East 4.6 mph - N/A   Clear
1:30 PM 71.6 °F - 50.0 °F 46% 30.10 in 10.0 mi NE 5.8 mph - N/A   Clear
1:50 PM 71.6 °F - 48.2 °F 43% 30.09 in 10.0 mi NNE 5.8 mph - N/A   Clear
2:10 PM 73.4 °F - 50.0 °F 44% 30.09 in 10.0 mi North 5.8 mph - N/A   Clear
2:30 PM 73.4 °F - 50.0 °F 44% 30.08 in 10.0 mi Calm Calm - N/A   Clear
2:50 PM 73.4 °F - 50.0 °F 44% 30.08 in 10.0 mi ENE 3.5 mph - N/A   Clear
3:10 PM 73.4 °F - 48.2 °F 41% 30.08 in 10.0 mi Calm Calm - N/A   Clear
3:30 PM 73.4 °F - 50.0 °F 44% 30.07 in 10.0 mi North 5.8 mph - N/A   Clear
3:50 PM 73.4 °F - 50.0 °F 44% 30.07 in 10.0 mi North 5.8 mph - N/A   Clear
4:10 PM 73.4 °F - 50.0 °F 44% 30.07 in 10.0 mi NNE 5.8 mph - N/A   Clear
4:30 PM 73.4 °F - 50.0 °F 44% 30.06 in 10.0 mi East 4.6 mph - N/A   Clear
4:50 PM 73.4 °F - 50.0 °F 44% 30.06 in 10.0 mi NNE 4.6 mph - N/A   Clear
5:10 PM 73.4 °F - 48.2 °F 41% 30.05 in 10.0 mi Calm Calm - N/A   Clear
5:30 PM 73.4 °F - 50.0 °F 44% 30.05 in 10.0 mi Calm Calm - N/A   Clear
5:50 PM 73.4 °F - 50.0 °F 44% 30.05 in 10.0 mi NE 3.5 mph - N/A   Clear
6:10 PM 73.4 °F - 53.6 °F 50% 30.05 in 10.0 mi Calm Calm - N/A   Clear
6:30 PM 71.6 °F - 55.4 °F 57% 30.05 in 10.0 mi ENE 4.6 mph - N/A   Clear
6:50 PM 68.0 °F - 57.2 °F 68% 30.05 in 10.0 mi East 5.8 mph - N/A   Clear
7:10 PM 66.2 °F - 57.2 °F 73% 30.04 in 10.0 mi East 4.6 mph - N/A   Clear
7:30 PM 66.2 °F - 55.4 °F 68% 30.04 in 10.0 mi ESE 4.6 mph - N/A   Clear
7:50 PM 64.4 °F - 55.4 °F 73% 30.04 in 10.0 mi ESE 4.6 mph - N/A   Clear
8:10 PM 62.6 °F - 53.6 °F 72% 30.05 in 10.0 mi SE 6.9 mph - N/A   Clear
8:30 PM 60.8 °F - 53.6 °F 77% 30.05 in 10.0 mi SE 5.8 mph - N/A   Clear
8:50 PM 60.8 °F - 53.6 °F 77% 30.05 in 10.0 mi SSE 3.5 mph - N/A   Clear
9:10 PM 59.0 °F - 55.4 °F 88% 30.06 in 10.0 mi ESE 4.6 mph - N/A   Clear
9:30 PM 59.0 °F - 55.4 °F 88% 30.06 in 10.0 mi East 4.6 mph - N/A   Clear
9:50 PM 57.2 °F - 57.2 °F 100% 30.06 in 10.0 mi ESE 5.8 mph - N/A   Clear
10:10 PM 55.4 °F - 55.4 °F 100% 30.06 in 10.0 mi ESE 5.8 mph - N/A   Clear
10:30 PM 55.4 °F - 55.4 °F 100% 30.06 in 10.0 mi SE 5.8 mph - N/A   Clear
10:50 PM 57.2 °F - 57.2 °F 100% 30.06 in 10.0 mi SSE 6.9 mph - N/A   Clear
11:10 PM 57.2 °F - 57.2 °F 100% 30.06 in 10.0 mi SSE 6.9 mph - N/A   Clear
11:30 PM 53.6 °F - 53.6 °F 100% 30.05 in 10.0 mi ESE 5.8 mph - N/A   Clear
11:50 PM 53.6 °F - 53.6 °F 100% 30.05 in 10.0 mi ESE 3.5 mph - N/A   Clear